Home > Weather > Cambridge > Past weeks

Flag for United Kingdom Past Weather in Cambridge, England, United Kingdom — Yesterday and Last 2 Weeks

Now
52 °F

Low clouds.


Feels Like: 50 °F
Forecast: 53 / 57 °F
Wind: 8 mph from North

Location: Mildenhall Royal Air Force Base

Current Time: May 30, 2016 at 4:08:33 AM

Latest Report: May 30, 2016 at 2:58 AM


Visibility: N/A

Pressure: 29.98 "Hg

Humidity: 100%

Dew Point: 52 °F

Location of CambridgeLocation

Past Weather in Cambridge — Graph

°F

Cambridge Temperature Yesterday

Maximum temperature yesterday: 64 °F (at 2:58 PM)
Minimum temperature yesterday: 45 °F (at 2:58 AM)
Average temperature yesterday: 55 °F

High & Low Weather Summary for the Past Weeks

 TemperatureHumidityPressure
High67 °F (May 21, 2:58 PM)100% (May 15, 3:58 AM)30.20 "Hg (May 15, 3:58 AM)
Low36 °F (May 15, 2:58 AM)48% (May 22, 2:58 PM)29.59 "Hg (May 18, 4:03 PM)
Average55 °F83%29.95 "Hg
* Reported May 15 2:58 AM — May 30 2:58 AM, Cambridge, Weather by CustomWeather, © 2016

Note: Actual official high and low records may vary slightly from our data, if they occured in-between our weather recording intervals... More about our weather records

Advertising

Cambridge Weather History for the Previous 24 Hours

Scroll right to see more
 ConditionsComfort  
Time TempWeatherWind HumidityBarometerVisibility
2:58 AM
Mon, May 30
52 °FLow clouds.8 mph100%29.98 "HgN/A
1:58 AM52 °FLow clouds.7 mph100%29.97 "HgN/A
12:58 AM52 °FLow clouds.10 mph100%30.00 "HgN/A
11:58 PM
Sun, May 29
52 °FLow clouds.9 mph100%30.00 "HgN/A
10:58 PM52 °FLow clouds.14 mph100%29.99 "HgN/A
10:04 PM54 °FLow clouds.10 mph100%29.98 "HgN/A
9:58 PM53 °FLow clouds.9 mph100%29.99 "HgN/A
8:58 PM53 °FLow clouds.12 mph100%29.97 "HgN/A
7:58 PM54 °FLow clouds.9 mph100%29.96 "HgN/A
6:58 PM56 °FOvercast.8 mph98%29.95 "HgN/A
5:58 PM58 °FOvercast.9 mph89%29.94 "HgN/A
5:03 PM61 °FPartly sunny.13 mph83%29.93 "HgN/A
4:58 PM62 °FPartly sunny.10 mph78%29.94 "HgN/A
3:58 PM64 °FSunny.12 mph76%29.93 "HgN/A
2:58 PM64 °FSunny.13 mph76%29.93 "HgN/A
1:58 PM63 °FScattered clouds.10 mph78%29.92 "HgN/A
12:58 PM62 °FBroken clouds.13 mph83%29.92 "HgN/A
11:58 AM60 °FPartly sunny.10 mph86%29.92 "HgN/A
10:58 AM57 °FOvercast.10 mph100%29.93 "HgN/A
9:58 AM55 °FLow clouds.8 mph100%29.92 "HgN/A
8:58 AM53 °FLow clouds.12 mph100%29.91 "HgN/A
7:58 AM52 °FLow clouds.9 mph100%29.91 "HgN/A
6:58 AM51 °FFog.7 mph100%29.91 "Hg4 mi
5:58 AM49 °FLow clouds.7 mph100%29.92 "HgN/A
4:58 AM49 °FLow clouds.8 mph100%29.92 "HgN/A
Weather by CustomWeather, © 2016

See weather overviewHow to use our weather pages